Weather History for Lansing, MI

Change the Weather History Date:

Thursday, December 27, 2012

  Actual Average Record
Temperature  
Mean Temperature 24 °F 25 °F  
Max Temperature 30 °F 32 °F 60 °F (2008)
Min Temperature 18 °F 19 °F -10 °F (1894)
Degree Days  
Heating Degree Days 41 40  
Month to date heating degree days 805 977  
Since 1 July heating degree days 2212 2391  
Cooling Degree Days 0 0  
Month to date cooling degree days 0 0  
Year to date cooling degree days 940 625  
Moisture  
Dew Point 17 °F    
Average Humidity 71    
Maximum Humidity 88    
Minimum Humidity 53    
Precipitation  
Precipitation T in 0.05 in 1.05 in (1942)
Month to date precipitation 1.94 1.64  
Year to date precipitation 28.37 31.54  
Snow  
Snow T in 0.50 in 7.80 in (1981)
Month to date snowfall 3.6 11.1  
Since 1 July snowfall 4.1 14.9  
Snow Depth 2.00 in    
Sea Level Pressure  
Sea Level Pressure 30.09 in    
Wind  
Wind Speed 6 mph (NNW)    
Max Wind Speed 16 mph    
Max Gust Speed 21 mph    
Visibility 8 miles    
Events Snow    
T = Trace of Precipitation, MM = Missing Value Source: NWS Daily Summary

Daily Weather History Graph

Daily Weather History Graph

Search for Another Location

Airport:

Trip Planner

Search our weather history database for the weather conditions in past years. The results will help you decide how hot, cold, wet, or windy it might be!

Date:

Astronomy

Dec. 27, 2012 Rise Set
Actual Time 8:08 AM EST 5:11 PM EST
Civil Twilight 7:35 AM EST 5:43 PM EST
Nautical Twilight 7:00 AM EST 6:19 PM EST
Astronomical Twilight 6:25 AM EST 6:53 PM EST
Moon 4:54 PM EST (12/27) 7:17 AM EST (12/27)
Length of Visible Light 10h 07m
Length of Day
9h 03m
Full, 100% of the Moon is Illuminated
Dec 27
Full
Dec 28
Full
Jan 4
Last Quarter
Jan 11
New
Jan 18
First Quarter

Hourly Weather History & Observations

Time (EST) Temp. Windchill Dew Point Humidity Pressure Visibility Wind Dir Wind Speed Gust Speed Precip Events Conditions
12:53 AM 23.0 °F 10.6 °F 19.0 °F 85% 29.98 in 5.0 mi North 13.8 mph - 0.00 in Snow Light Snow
1:08 AM 23.0 °F 10.1 °F 19.4 °F 86% 29.94 in 6.0 mi North 15.0 mph 20.7 mph 0.00 in   Overcast
1:35 AM 23.0 °F 11.7 °F 19.4 °F 86% 29.95 in 5.0 mi North 11.5 mph 19.6 mph 0.00 in Snow Light Snow
1:53 AM 23.0 °F 12.4 °F 19.0 °F 85% 30.00 in 4.0 mi NNW 10.4 mph - 0.00 in Snow Light Snow
2:53 AM 23.0 °F 13.1 °F 19.0 °F 85% 30.03 in 6.0 mi NNW 9.2 mph - 0.00 in Snow Light Snow
3:22 AM 23.0 °F 13.1 °F 19.4 °F 86% 29.99 in 8.0 mi North 9.2 mph - 0.00 in Snow Light Snow
3:31 AM 23.0 °F 13.1 °F 19.4 °F 86% 30.00 in 8.0 mi NNW 9.2 mph - 0.00 in Snow Light Snow
3:53 AM 23.0 °F 13.1 °F 19.0 °F 85% 30.04 in 7.0 mi NNW 9.2 mph - 0.00 in Snow Light Snow
4:49 AM 23.0 °F 12.4 °F 19.4 °F 86% 30.01 in 6.0 mi NNW 10.4 mph - 0.00 in Snow Light Snow
4:53 AM 23.0 °F 12.4 °F 19.0 °F 85% 30.05 in 6.0 mi NNW 10.4 mph - 0.00 in Snow Light Snow
5:28 AM 23.0 °F 13.1 °F 19.4 °F 86% 30.03 in 6.0 mi NNW 9.2 mph - 0.00 in Snow Light Snow
5:53 AM 23.0 °F 11.7 °F 19.0 °F 85% 30.07 in 9.0 mi NNW 11.5 mph - 0.00 in Snow Light Snow
6:53 AM 21.9 °F 11.7 °F 17.1 °F 82% 30.10 in 9.0 mi NNW 9.2 mph - 0.00 in Snow Light Snow
7:38 AM 21.2 °F 12.6 °F 17.6 °F 86% 30.07 in 9.0 mi NNW 6.9 mph - 0.00 in Snow Light Snow
7:53 AM 21.9 °F 12.5 °F 17.1 °F 82% 30.12 in 9.0 mi North 8.1 mph - 0.00 in Snow Light Snow
8:53 AM 21.9 °F 14.5 °F 18.0 °F 85% 30.13 in 4.0 mi NNW 5.8 mph - 0.00 in Snow Light Snow
9:46 AM 21.2 °F 16.4 °F 17.6 °F 86% 30.11 in 2.5 mi NW 3.5 mph - 0.00 in   Scattered Clouds
9:53 AM 23.0 °F 14.7 °F 17.1 °F 78% 30.16 in 5.0 mi NW 6.9 mph - 0.00 in   Mostly Cloudy
10:53 AM 25.0 °F 16.3 °F 18.0 °F 75% 30.16 in 10.0 mi NW 8.1 mph - N/A   Mostly Cloudy
11:53 AM 26.1 °F 19.4 °F 18.0 °F 71% 30.15 in 10.0 mi NW 5.8 mph - N/A   Scattered Clouds
12:53 PM 27.0 °F 18.7 °F 17.1 °F 66% 30.14 in 10.0 mi WNW 8.1 mph - N/A   Scattered Clouds
1:53 PM 28.0 °F 22.8 °F 16.0 °F 61% 30.12 in 10.0 mi Variable 4.6 mph - N/A   Partly Cloudy
2:53 PM 28.9 °F 21.9 °F 17.1 °F 61% 30.14 in 10.0 mi WNW 6.9 mph - N/A   Clear
3:53 PM 30.0 °F 24.1 °F 15.1 °F 54% 30.13 in 10.0 mi NNW 5.8 mph - N/A   Partly Cloudy
4:53 PM 28.0 °F 24.2 °F 15.1 °F 58% 30.15 in 10.0 mi NNW 3.5 mph - N/A   Mostly Cloudy
5:53 PM 25.0 °F - 15.1 °F 66% 30.16 in 10.0 mi Calm Calm - N/A   Mostly Cloudy
6:53 PM 24.1 °F - 15.1 °F 69% 30.17 in 10.0 mi Calm Calm - N/A   Mostly Cloudy
7:53 PM 24.1 °F 19.7 °F 15.1 °F 69% 30.19 in 10.0 mi WSW 3.5 mph - N/A   Mostly Cloudy
8:53 PM 21.9 °F - 15.1 °F 75% 30.19 in 10.0 mi Calm Calm - N/A   Mostly Cloudy
9:53 PM 21.0 °F - 15.1 °F 78% 30.18 in 10.0 mi Calm Calm - N/A   Mostly Cloudy
10:53 PM 21.0 °F - 15.1 °F 78% 30.18 in 10.0 mi Calm Calm - N/A   Mostly Cloudy
11:53 PM 19.0 °F - 14.0 °F 81% 30.17 in 10.0 mi Calm Calm - N/A   Mostly Cloudy